Regional Weather Roundup
Issued by NWS

Home | Current Version | Previous Version | Text Only | Print | Product List | Glossary Off
Versions: 1 2 3 4 5 6 7 8 9 10 11 12 13 14 15 16 17 18 19 20 21 22 23 24 25 26 27 28 29 30 31 32 33 34 35 36 37 38 39 40 41 42 43 44 45 46 47 48 49 50

000
ASUS43 KLMK 051202
RWRKY
KENTUCKY REGIONAL WEATHER ROUNDUP
NATIONAL WEATHER SERVICE LOUISVILLE KY
800 AM EDT WED AUG 05 2015

NOTE "FAIR" INDICATES FEW OR NO CLOUDS BELOW 12,000 FEET
WITH NO SIGNIFICANT WEATHER AND/OR OBSTRUCTIONS TO VISIBILITY.

KYZ001>023-026-027-061>063-070>075-051300-
WESTERN AND SOUTH CENTRAL KENTUCKY

CITY           SKY/WX    TMP DP  RH WIND       PRES   REMARKS
PADUCAH        MOCLDY    75  71  87 CALM      29.98S
HENDERSON      PTSUNNY   72  66  83 NE5       30.01R
OWENSBORO      MOSUNNY   73  70  91 NE7       30.02S
HOPKINSVILLE   CLOUDY    74  70  88 SE2       30.00S
BOWLING GREEN  MOSUNNY   73  69  87 CALM      30.02R
GLASGOW        PTSUNNY   70  70 100 NE6       30.04R
$$

KYZ024-025-028>034-038-045-046-053-051300-
NORTH CENTRAL KENTUCKY

CITY           SKY/WX    TMP DP  RH WIND       PRES   REMARKS
LOUISVILLE/SDF MOSUNNY   72  68  87 CALM      30.03S FOG
LOUISVILLE/LOU MOSUNNY   71  68  90 CALM      30.04S FOG
FORT KNOX      MOSUNNY   68  67  96 E2        30.03S
$$

KYZ035>037-039>044-047>052-055>060-089>105-051300-
NORTHEAST KENTUCKY

CITY           SKY/WX    TMP DP  RH WIND       PRES   REMARKS
LEXINGTON      MOSUNNY   67  65  93 CALM      30.06S
COVINGTON      MOSUNNY   68  63  84 N3        30.06R
FRANKFORT      MOSUNNY   67  65  93 CALM      30.05R
$$

KYZ054-064>069-076>088-106>120-051300-
SOUTHEAST KENTUCKY

CITY           SKY/WX    TMP DP  RH WIND       PRES   REMARKS
JACKSON        FOG       66  66 100 CALM      30.09R VSB<1/4
LONDON         CLOUDY    69  65  86 NE3       30.08S
SOMERSET       NOT AVBL
MIDDLESBORO    CLOUDY    67  66  96 CALM      30.10R
MONTICELLO     CLOUDY    69  69 100 CALM      30.08S FOG
$$




USA.gov is the U.S. government's official web portal to all federal, state and local government web resources and services.